Regional Weather Roundup
Issued by NWS

Home | Current Version | Previous Version | Text Only | Print | Product List | Glossary Off
Versions: 1 2 3 4 5 6 7 8 9 10 11 12 13 14 15 16 17 18 19 20 21 22 23 24 25 26 27 28 29 30 31 32 33 34 35 36 37 38 39 40 41 42 43 44 45 46 47 48 49 50

000
ASUS43 KMKX 240310
RWRWI

WISCONSIN REGIONAL WEATHER ROUNDUP
NATIONAL WEATHER SERVICE MILWAUKEE/SULLIVAN WI
900 PM CST MON JAN 23 2017

NOTE: "FAIR" INDICATES FEW OR NO CLOUDS BELOW 12,000 FEET WITH NO
SIGNIFICANT WEATHER AND/OR OBSTRUCTIONS TO VISIBILITY.

WIZ001-002-006>008-014>016-023>028-240400-
NORTHWEST WISCONSIN

CITY           SKY/WX    TMP DP  RH WIND       PRES   REMARKS
SUPERIOR ARPT  CLOUDY    34  32  93 CALM      29.82S
ASHLAND        CLOUDY    32  32 100 SW3       29.82R
HAYWARD        CLOUDY    35  32  88 CALM      29.81S
SIREN          CLOUDY    33  32  98 W3        29.83S FOG
CUMBERLAND     CLOUDY    32  30  93 CALM      29.81S
RICE LAKE      CLOUDY    33  32  95 CALM      29.83S
CHETEK         CLOUDY    32  32 100 CALM      29.82S
LADYSMITH      CLOUDY    33  32  96 NE3       29.83R
EAU CLAIRE     CLOUDY    33  33 100 CALM      29.82S FOG
MENOMONIE        N/A    N/A N/A N/A MISG        N/A
NEW RICHMOND   CLOUDY    32  32 100 CALM      29.83S FOG
OSCEOLA        CLOUDY    33  33 100 W3        29.85F FOG
$$

WIZ003>005-009-010-017-018-240400-
NORTH CENTRAL WISCONSIN

CITY           SKY/WX    TMP DP  RH WIND       PRES   REMARKS
MANITOWISH WTR CLOUDY    33  33 100 CALM      29.77S
ARBOR VITAE    CLOUDY    37  36  96 CALM      29.77S
WOODRUFF       CLOUDY    37  36  96 CALM      29.77S
RHINELANDER    CLOUDY    35  35 100 CALM      29.77F FOG
EAGLE RIVER    CLOUDY    33  33 100 CALM      29.77S FOG
LAND O LAKES   FOG       34  34 100 CALM      29.78F VSB 1
PHILLIPS       CLOUDY    33  33 100 CALM      29.78S
TOMAHAWK       CLOUDY    33  33  96 CALM      29.79S
MEDFORD        CLOUDY    32  32  99 NW3       29.78F FOG
MERRILL        CLOUDY    34  34 100 CALM        N/A  FOG
$$

WIZ029-030-035-036-043>047-240400-
CENTRAL WISCONSIN

CITY           SKY/WX    TMP DP  RH WIND       PRES   REMARKS
WAUSAU         FOG       34  34 100 NW3       29.78S VSB 3/4
MOSINEE        NOT AVBL
MARSHFIELD     CLOUDY    33  32  96 NW6       29.79S FOG     WCI  28
STEVENS POINT  FOG       33  33 100 CALM      29.80F VSB 1
WAUPACA        CLOUDY    38  35  89 CALM      29.81S
WAUTOMA        CLOUDY    36  34  93 NW3       29.81S FOG
WISC RAPIDS    CLOUDY    35  34  96 NW3       29.81S
CAMP DOUGLAS   CLOUDY    34  34 100 NW5       29.81S WCI  30
$$

WIZ011>013-019>022-031-037>040-048>050-240400-
NORTHEAST WISCONSIN

CITY           SKY/WX    TMP DP  RH WIND       PRES   REMARKS
ANTIGO         CLOUDY    34  33  98 CALM      29.78S
SHAWANO        CLOUDY    38  35  88 CALM      29.80R
OCONTO         CLOUDY    33  33  99 W5        29.80R VSB 3/4 WCI  29
STURGEON BAY   FOG       34  34 100 CALM      29.80R VSB 1/4
GREEN BAY      CLOUDY    37  36  96 CALM      29.80R
MANITOWOC      CLOUDY    35  34  96 NW3       29.81R
APPLETON       MOCLDY    36  36 100 W8        29.78R WCI  29
CLINTONVILLE   CLOUDY    36  34  93 W6        29.80S WCI  31
OSHKOSH        CLOUDY    35  33  92 W6        29.80R WCI  30
$$

WIZ032>034-041-042-053>061-240400-
SOUTHWEST WISCONSIN

CITY           SKY/WX    TMP DP  RH WIND       PRES   REMARKS
LA CROSSE      CLOUDY    36  33  89 N3        29.83F
SPARTA         CLOUDY    32  32 100 CALM      29.84S FOG
VIROQUA        CLOUDY    33  33 100 CALM      29.81F
BOSCOBEL       CLOUDY    36  32  85 CALM      29.84S
PRAIRIE DU CHI CLOUDY    34  32  92 SW3       29.84S
PLATTEVILLE    CLOUDY    35  33  94 CALM      29.83S
$$

WIZ056-057-062-063-064-067-068-240400-
SOUTH CENTRAL WISCONSIN

CITY           SKY/WX    TMP DP  RH WIND       PRES   REMARKS
REEDSBURG      CLOUDY    34  34 100 CALM      29.81S
BARABOO/DELLS  CLOUDY    34  32  94 W3        29.81S
LONE ROCK      CLOUDY    36  31  82 N3        29.83S
MINERAL POINT  CLOUDY    36  34  93 CALM      29.81S
MADISON        CLOUDY    36  32  85 CALM      29.82S
MIDDLETON      CLOUDY    37  37 100 NW5       29.82S WCI  33
WATERTOWN      CLOUDY    35  35 100 NW3       29.81S FOG
MONROE         CLOUDY    36  32  87 W5        29.81R WCI  32
JANESVILLE     CLOUDY    37  37 100 N6        29.81S WCI  33
$$

WIZ051-052-058>065-066-070>072-240400-
SOUTHEAST WISCONSIN

CITY           SKY/WX    TMP DP  RH WIND       PRES   REMARKS
MILWAUKEE      CLOUDY    40  35  83 NW6       29.80F
WAUKESHA       CLOUDY    34  34 100 NW6       29.81S WCI  29
MILWAUKEE/TIMM CLOUDY    37  34  87 NW5       29.81S WCI  34
RACINE         CLOUDY    38  34  85 NW6       29.81F WCI  33
KENOSHA        CLOUDY    38  34  85 N5        29.80S WCI  34
FOND DU LAC    CLOUDY    36  32  85 NW5       29.80S WCI  32
SHEBOYGAN      CLOUDY    36  33  89 NW5       29.80R WCI  32
WEST BEND      CLOUDY    36  34  93 NW7       29.80S WCI  30
JUNEAU         CLOUDY    35  34  97 NW3       29.82S FOG
$$

LSZ147-162-240400-
LAKE SUPERIOR

STATION/POSITION TIME  TEMP    WIND        PRES    WAVE
                       AIR SEA DIR/SP/G            HT/PER
                 (UTC) (F)     (DEG/KT/KT) (MB)    (FT/S)
DEVILS ISLAND    0300   34     220/  7/  8 1009.7S
PORT WING        0240   35     190/  3/  4 1009.8S
SAXON HARBOR     0240   33     200/  2/  3 1009.5S
$$

LMZ867-665-643>646-240400-
LAKE MICHIGAN

STATION/POSITION TIME  TEMP    WIND        PRES    WAVE
                       AIR SEA DIR/SP/G            HT/PER
                 (UTC) (F)     (DEG/KT/KT) (MB)    (FT/S)
NORTHPORT PIER   0240   33     320/  3/  4 1009.1R
SISTER BAY       0220   34        CALM       N/A
KEWAUNEE LAKESHO 0248   36      CALM  /  1 1008.6R
SHEBOYGAN LAKESH 0300   37     300/  5/  6 1009.4R
PORT WASHINGTON  0230   38     290/  4/  7 1010.2S
KENOSHA   LAKESH 0300   38     350/  5/  6 1009.5
$$

TC  - TEMPERATURE IN CELSIUS
VSB - VISIBILITY IN STATUTE MILES
WCI - WIND CHILL INDEX
HX  - HEAT INDEX




USA.gov is the U.S. government's official web portal to all federal, state and local government web resources and services.